[[{"header":{"parameterUnit":"m.s-1","parameterCategory":1,"la1":30.2991,"la2":30.254,"lo1":-89.0895,"lo2":-89.0444,"dy":0.0017,"dx":0.0017,"nx":28,"ny":28,"refTime":"2023-03-22T21:00:00:Z","depth":0,"parameterNumber":2,"parameterNumberName":"U-component_of_WINDS"},"data":[0,0,0,0,0,0,0,0,0,0,0,0,0,0,0,0,0,0,0,0,0,0,0,0,0,0,0,0,0,0,0,0,0,0,0,0,0,0,0,0,0,0,0,0,0,0,0,0,0,0,0,0,0,0,0,0,0,0,-1.7506,-1.7506,0,-1.7527,-1.7527,-1.7528,-1.7517,-1.7516,-1.7516,-1.7515,-1.7536,-1.7537,-1.7538,0,0,0,0,0,0,0,0,0,0,0,0,0,-1.7456,-1.7457,-1.7506,-1.7506,-1.7507,-1.7527,-1.7527,-1.7528,-1.7517,-1.7516,-1.7516,-1.7515,-1.7536,-1.7537,-1.7538,0,0,0,0,0,0,0,0,0,0,0,0,0,-1.7477,-1.7457,-1.7506,-1.7504,-1.7504,-1.7527,-1.7527,-1.7528,-1.7517,-1.7516,-1.7516,-1.7515,-1.7535,-1.7537,-1.7538,-1.7565,0,0,-1.7543,-1.7544,0,0,0,0,0,0,0,0,-1.7476,-1.7479,-1.7504,-1.7504,-1.7504,-1.7519,-1.7517,-1.754,-1.7517,-1.7512,-1.7515,-1.7514,-1.7531,-1.7533,-1.7539,-1.7566,-1.7567,-1.7544,-1.7545,-1.7545,-1.7546,0,0,0,0,0,0,0,-1.7475,-1.7478,-1.7514,-1.7504,-1.7504,-1.7501,-1.7504,-1.7522,-1.7526,-1.7513,-1.7512,-1.7514,-1.7531,-1.7537,-1.7539,-1.7567,-1.7543,-1.7545,-1.7546,-1.7547,-1.7616,-1.7617,0,0,0,0,0,0,-1.7473,-1.7477,-1.7514,-1.7515,-1.7488,-1.7503,-1.7505,-1.7515,-1.7526,-1.7527,-1.7515,-1.7514,-1.7535,-1.7537,-1.754,-1.757,-1.7545,-1.7547,-1.7548,-1.7616,-1.7617,-1.7618,0,0,0,0,0,0,-1.7472,-1.7477,-1.7513,-1.7496,-1.75,-1.7505,-1.7515,-1.7516,-1.7522,-1.7528,-1.7528,-1.7521,-1.7534,-1.7537,-1.7559,-1.7571,-1.7547,-1.7549,-1.7614,-1.7616,-1.7617,-1.7633,0,0,0,0,0,0,-1.7471,-1.7476,-1.7487,-1.7496,-1.7501,-1.7532,-1.7516,-1.7517,-1.7525,-1.7523,-1.7533,-1.7534,-1.7534,-1.7556,-1.756,-1.7573,-1.755,-1.7613,-1.7615,-1.7617,-1.7631,-1.7635,-1.7638,0,0,0,0,0,-1.7469,-1.749,-1.7487,-1.7492,-1.7514,-1.7533,-1.7535,-1.7535,-1.7526,-1.7536,-1.754,-1.7534,-1.7569,-1.7559,-1.7563,-1.7576,-1.7613,-1.7615,-1.7617,-1.763,-1.7634,-1.7637,0,0,0,0,0,0,-1.7482,-1.7491,-1.7488,-1.7513,-1.7522,-1.7531,-1.7543,-1.7539,-1.7551,-1.7549,-1.7548,-1.755,-1.7572,-1.7576,-1.7564,-1.7602,-1.7589,-1.7592,-1.7598,-1.7602,-1.7605,-1.7603,-1.7551,0,0,0,0,0,-1.7488,-1.7502,-1.751,-1.7531,-1.7536,-1.7539,-1.7547,-1.7546,-1.7555,-1.7559,-1.7564,-1.7573,-1.7586,-1.7594,-1.7607,-1.7632,-1.7634,-1.7644,-1.7647,-1.7649,-1.7651,-1.7664,-1.7668,-1.7624,-1.7624,-1.7624,0,0,-1.75,-1.7507,-1.7516,-1.7534,-1.7541,-1.7555,-1.7542,-1.7558,-1.7569,-1.7561,-1.7581,-1.7585,-1.7595,-1.7618,-1.7629,-1.7622,-1.7664,-1.7652,-1.7654,-1.7655,-1.7667,-1.7671,-1.7675,-1.7626,-1.7625,-1.7625,0,0,-1.7529,-1.7536,-1.7554,-1.7561,-1.7572,-1.7574,-1.7578,-1.7587,-1.759,-1.761,-1.7604,-1.7617,-1.764,-1.7647,-1.7653,-1.7685,-1.7679,-1.7689,-1.7705,-1.7717,-1.7721,-1.7724,-1.7734,-1.7738,-1.7692,-1.7692,-1.7692,0,-1.7542,-1.7564,-1.7564,-1.758,-1.7588,-1.7582,-1.76,-1.7607,-1.7621,-1.7626,-1.7619,-1.7647,-1.7654,-1.7678,-1.7685,-1.7691,-1.7696,-1.7687,-1.772,-1.7724,-1.7726,-1.7736,-1.774,-1.7693,-1.7692,-1.7692,-1.7692,0,-1.7579,-1.7594,-1.7608,-1.7621,-1.7631,-1.7648,-1.765,-1.7659,-1.7658,-1.766,-1.7681,-1.7688,-1.7702,-1.7708,-1.7706,-1.7731,-1.7727,-1.7721,-1.7708,-1.7732,-1.7741,-1.7744,-1.7694,-1.7694,-1.7693,-1.7693,0,0,-1.7616,-1.763,-1.7634,-1.764,-1.7651,-1.7663,-1.768,-1.7693,-1.7701,-1.7711,-1.7724,-1.7744,-1.7737,-1.7745,-1.7744,-1.7755,-1.7779,-1.7747,-1.7747,-1.7752,-1.7806,-1.781,-1.7814,-1.7776,-1.7776,-1.7777,-1.7805,0,-1.7645,-1.7674,-1.7674,-1.7701,-1.7714,-1.7709,-1.7724,-1.7732,-1.7735,-1.7747,-1.775,-1.7763,-1.7755,-1.7759,-1.777,-1.7773,-1.7789,-1.7772,-1.7787,-1.7788,-1.7783,-1.7819,-1.7824,-1.7849,-1.7808,-1.7809,-1.7809,0,-1.7682,-1.7693,-1.7721,-1.773,-1.7736,-1.7748,-1.776,-1.7772,-1.7781,-1.7782,-1.7791,-1.7788,-1.7805,-1.7793,-1.7815,-1.7803,-1.7809,-1.7812,-1.7813,-1.7813,-1.7799,-1.7819,-1.7858,-1.7861,-1.7815,-1.7815,-1.7814,0,-1.7704,-1.7727,-1.7746,-1.7751,-1.7762,-1.7771,-1.7776,-1.7785,-1.7793,-1.7803,-1.7808,-1.7821,-1.7827,-1.7837,-1.7837,-1.7829,-1.7859,-1.7847,-1.786,-1.786,-1.7866,-1.7865,-1.7905,-1.7872,-1.7872,-1.7872,-1.7872,0,-1.7736,-1.7753,-1.7756,-1.7768,-1.7787,-1.7787,-1.7805,-1.781,-1.7817,-1.7829,-1.7826,-1.7837,-1.7838,-1.785,-1.7851,-1.7868,-1.7872,-1.7873,-1.7872,-1.7872,-1.7872,-1.7876,-1.7873,-1.7873,-1.7873,-1.7873,-1.7873,0,-1.7764,-1.7767,-1.7787,-1.7796,-1.7799,-1.7812,-1.7819,-1.783,-1.7833,-1.7849,-1.7852,-1.7857,-1.787,-1.7872,-1.7888,-1.7889,-1.7909,-1.7908,-1.7906,-1.7906,-1.7918,-1.7916,-1.796,-1.7965,-1.7931,-1.7931,-1.7931,0,-1.7783,-1.7796,-1.7806,-1.7814,-1.7819,-1.7832,-1.784,-1.7841,-1.785,-1.7861,-1.787,-1.7884,-1.7894,-1.7916,-1.792,-1.7932,-1.793,-1.7945,-1.7932,-1.7931,-1.7929,-1.7928,-1.7928,-1.7947,-1.7947,-1.7947,-1.7948,0,-1.7816,-1.7817,-1.7829,-1.7841,-1.7851,-1.786,-1.7869,-1.7876,-1.7878,-1.7888,-1.7901,-1.791,-1.7926,-1.7939,-1.7951,-1.7955,-1.7951,-1.7952,-1.7955,-1.7954,-1.7952,-1.7952,-1.7912,-1.7951,-1.795,-1.795,-1.795,-1.795,-1.7839,-1.785,-1.7859,-1.7872,-1.7879,-1.7888,-1.7898,-1.7902,-1.7914,-1.7927,-1.7927,-1.7942,-1.7951,-1.7966,-1.7972,-1.7983,-1.7978,-1.7983,-1.7985,-1.7986,-1.7986,-1.7952,-1.7985,-1.7985,-1.7985,-1.7985,-1.7985,0,-1.7872,-1.7877,-1.7889,-1.7902,-1.7912,-1.7908,-1.7918,-1.7927,-1.794,-1.7948,-1.7958,-1.7974,-1.7986,-1.7992,-1.8004,-1.8012,-1.801,-1.8015,-1.8014,-1.8015,-1.799,-1.7986,-1.8016,-1.8016,-1.8016,-1.8016,-1.8016,-1.8016,-1.7889,-1.7907,-1.7909,-1.793,-1.7936,-1.795,-1.7956,-1.7964,-1.797,-1.7988,-1.7998,-1.8002,-1.8009,-1.8021,-1.8032,-1.8033,-1.8037,-1.8042,-1.8043,-1.802,-1.8016,-1.8013,-1.8009,-1.8044,-1.8044,-1.8066,-1.8066,-1.8066]},{"header":{"parameterUnit":"m.s-1","parameterCategory":1,"la1":30.2991,"la2":30.254,"lo1":-89.0895,"lo2":-89.0444,"dy":0.0017,"dx":0.0017,"nx":28,"ny":28,"refTime":"2023-03-22T21:00:00:Z","depth":0,"parameterNumber":3,"parameterNumberName":"V-component_of_WINDS"},"data":[0,0,0,0,0,0,0,0,0,0,0,0,0,0,0,0,0,0,0,0,0,0,0,0,0,0,0,0,0,0,0,0,0,0,0,0,0,0,0,0,0,0,0,0,0,0,0,0,0,0,0,0,0,0,0,0,0,0,3.578,3.578,0,3.5823,3.5823,3.5824,3.5792,3.5791,3.5789,3.5788,3.5831,3.5834,3.5836,0,0,0,0,0,0,0,0,0,0,0,0,0,3.5671,3.5674,3.578,3.578,3.5781,3.5823,3.5823,3.5824,3.5792,3.5791,3.5789,3.5787,3.583,3.5833,3.5836,0,0,0,0,0,0,0,0,0,0,0,0,0,3.5717,3.5674,3.578,3.577,3.577,3.5823,3.5823,3.5824,3.5793,3.5791,3.5789,3.5787,3.583,3.5833,3.5837,3.5901,0,0,3.5848,3.5849,0,0,0,0,0,0,0,0,3.5714,3.5721,3.5771,3.5771,3.5771,3.58,3.5801,3.585,3.5793,3.5784,3.5788,3.5786,3.5822,3.5827,3.5839,3.5903,3.5905,3.5848,3.585,3.5852,3.5853,0,0,0,0,0,0,0,3.5711,3.5719,3.5797,3.5772,3.5772,3.5764,3.5768,3.581,3.5814,3.5785,3.5782,3.5788,3.5822,3.5836,3.584,3.5905,3.5848,3.5851,3.5854,3.5855,3.6027,3.6029,0,0,0,0,0,0,3.5709,3.5716,3.5795,3.5798,3.5737,3.5768,3.5772,3.5793,3.5814,3.5815,3.579,3.5786,3.583,3.5836,3.5841,3.592,3.5852,3.5855,3.5857,3.6024,3.6027,3.603,0,0,0,0,0,0,3.5707,3.5716,3.5794,3.5757,3.5766,3.5772,3.5795,3.5795,3.5808,3.5818,3.5818,3.5803,3.5829,3.5836,3.5887,3.5921,3.5857,3.586,3.6021,3.6025,3.6028,3.6077,0,0,0,0,0,0,3.5704,3.5716,3.574,3.5757,3.5768,3.5838,3.5797,3.5797,3.5815,3.5811,3.583,3.5832,3.5828,3.5882,3.5891,3.5925,3.5863,3.6018,3.6023,3.6027,3.6072,3.6081,3.6089,0,0,0,0,0,3.57,3.5751,3.5741,3.5751,3.5798,3.584,3.5847,3.5842,3.5818,3.5842,3.5849,3.5831,3.5916,3.5887,3.5897,3.5933,3.6016,3.6022,3.6027,3.6068,3.608,3.6089,0,0,0,0,0,0,3.5736,3.5753,3.5742,3.58,3.5819,3.5835,3.5866,3.5853,3.5879,3.5874,3.5867,3.5872,3.5926,3.5934,3.5902,3.5997,3.5962,3.597,3.599,3.6001,3.601,3.6007,3.5866,0,0,0,0,0,3.5751,3.5784,3.5796,3.5847,3.5857,3.586,3.5878,3.5873,3.5892,3.59,3.591,3.5929,3.596,3.5981,3.601,3.6073,3.6078,3.6102,3.6111,3.6118,3.6125,3.6162,3.6174,3.6047,3.6047,3.6047,0,0,3.5782,3.5795,3.5816,3.5854,3.5868,3.5903,3.5867,3.5904,3.5931,3.5905,3.5955,3.5963,3.5984,3.6042,3.6068,3.605,3.6161,3.6125,3.613,3.6134,3.6168,3.618,3.6191,3.6051,3.605,3.6049,0,0,3.5857,3.5869,3.5913,3.5929,3.5951,3.5953,3.5964,3.5982,3.5987,3.6036,3.6019,3.6049,3.6102,3.6119,3.6134,3.6218,3.6203,3.6227,3.6273,3.6309,3.6319,3.6327,3.6359,3.6371,3.6234,3.6234,3.6234,0,3.5892,3.5944,3.5938,3.5978,3.5996,3.5975,3.6021,3.6036,3.6066,3.608,3.606,3.6128,3.614,3.6203,3.6224,3.6236,3.6249,3.6225,3.6318,3.6326,3.6335,3.6365,3.6377,3.6237,3.6236,3.6236,3.6236,0,3.5988,3.6024,3.6057,3.6089,3.611,3.6153,3.6154,3.6176,3.617,3.6174,3.6226,3.624,3.6273,3.6287,3.628,3.635,3.6339,3.6318,3.6283,3.635,3.6379,3.639,3.6241,3.624,3.6239,3.6238,0,0,3.6087,3.6115,3.6128,3.6143,3.6166,3.6194,3.6237,3.6269,3.629,3.6312,3.6348,3.6395,3.6377,3.6394,3.6389,3.642,3.6488,3.6396,3.6397,3.6415,3.6569,3.6586,3.6599,3.6478,3.648,3.6482,3.6568,0,3.6164,3.6239,3.6235,3.6305,3.6339,3.6321,3.6358,3.6377,3.6383,3.6413,3.6419,3.6453,3.6425,3.6436,3.6466,3.6474,3.652,3.6467,3.6514,3.6515,3.6511,3.6614,3.6631,3.6712,3.6579,3.6581,3.6582,0,3.6265,3.6292,3.6365,3.6386,3.6401,3.6434,3.6465,3.6494,3.6516,3.6517,3.6538,3.6529,3.6573,3.6535,3.6597,3.6561,3.658,3.6587,3.659,3.6595,3.6554,3.6625,3.6737,3.675,3.6599,3.6598,3.6596,0,3.6333,3.6387,3.6439,3.6452,3.6476,3.6501,3.6512,3.6532,3.6553,3.658,3.6593,3.6625,3.6642,3.6667,3.6667,3.6639,3.673,3.6692,3.6734,3.6735,3.6755,3.6755,3.6875,3.6764,3.6764,3.6764,3.6763,0,3.6421,3.6467,3.647,3.6502,3.6554,3.6549,3.6601,3.661,3.6628,3.6662,3.6647,3.668,3.6676,3.6709,3.6709,3.6761,3.6768,3.6772,3.6772,3.6775,3.6775,3.6789,3.6784,3.6767,3.6766,3.6765,3.6765,0,3.6506,3.6509,3.6565,3.6585,3.6591,3.6628,3.6645,3.6676,3.6681,3.6724,3.6734,3.6742,3.678,3.6782,3.6825,3.6825,3.689,3.6882,3.6883,3.6882,3.6925,3.6922,3.706,3.7079,3.6954,3.6955,3.6956,0,3.6563,3.6599,3.6623,3.6645,3.6658,3.6694,3.6715,3.6713,3.6736,3.6764,3.6792,3.6829,3.6859,3.6921,3.6931,3.6964,3.6959,3.7005,3.6964,3.6967,3.6963,3.6962,3.6966,3.7014,3.7015,3.7016,3.7017,0,3.6666,3.6666,3.6698,3.6731,3.6758,3.6783,3.6807,3.6826,3.6826,3.6853,3.6893,3.6916,3.6961,3.6999,3.7032,3.7044,3.7032,3.703,3.7042,3.7046,3.7046,3.705,3.6907,3.7027,3.7026,3.7025,3.7025,3.7024,3.674,3.6772,3.6795,3.6831,3.6849,3.6872,3.6903,3.6912,3.6945,3.6983,3.6979,3.7023,3.7046,3.7089,3.7104,3.714,3.7124,3.7141,3.7145,3.715,3.7156,3.7039,3.7145,3.7145,3.7145,3.7144,3.7144,0,3.6844,3.6858,3.6892,3.6927,3.6956,3.6941,3.6967,3.6993,3.7032,3.7055,3.7085,3.7131,3.7168,3.7181,3.7217,3.7243,3.7238,3.7253,3.7252,3.7256,3.7167,3.7154,3.7256,3.7256,3.7256,3.7256,3.7256,3.7256,3.6902,3.6956,3.6959,3.7022,3.7036,3.708,3.7096,3.7118,3.7136,3.7189,3.722,3.7228,3.7247,3.7285,3.7319,3.7322,3.7337,3.7355,3.7355,3.7273,3.7261,3.7251,3.7239,3.7357,3.7357,3.7441,3.7442,3.7443]}]]